Year,Month,Day,Hour,Minute,Value (Times are PST for windspeed in km/hr)
2019,04,05,00,00,0.70
2019,04,05,00,01,1.60
2019,04,05,00,02,0.60
2019,04,05,00,03,0.00
2019,04,05,00,04,0.00
2019,04,05,00,05,0.60
2019,04,05,00,06,0.10
2019,04,05,00,07,0.00
2019,04,05,00,08,0.00
2019,04,05,00,09,0.00
2019,04,05,00,10,0.00
2019,04,05,00,11,0.00
2019,04,05,00,12,0.00
2019,04,05,00,13,0.30
2019,04,05,00,14,0.20
2019,04,05,00,15,0.00
2019,04,05,00,16,0.00
2019,04,05,00,17,0.00
2019,04,05,00,18,0.00
2019,04,05,00,19,0.00
2019,04,05,00,20,0.00
2019,04,05,00,21,0.00
2019,04,05,00,22,0.00
2019,04,05,00,23,0.00
2019,04,05,00,24,0.00
2019,04,05,00,25,0.00
2019,04,05,00,26,0.00
2019,04,05,00,27,0.10
2019,04,05,00,28,0.00
2019,04,05,00,29,0.10
2019,04,05,00,30,0.00
2019,04,05,00,31,0.00
2019,04,05,00,32,0.00
2019,04,05,00,33,1.50
2019,04,05,00,34,1.80
2019,04,05,00,35,0.60
2019,04,05,00,36,0.10
2019,04,05,00,37,0.00
2019,04,05,00,38,0.10
2019,04,05,00,39,0.30
2019,04,05,00,40,5.60
2019,04,05,00,41,1.40
2019,04,05,00,42,0.20
2019,04,05,00,43,0.60
2019,04,05,00,44,0.00
2019,04,05,00,45,0.70
2019,04,05,00,46,0.20
2019,04,05,00,47,0.00
2019,04,05,00,48,0.20
2019,04,05,00,49,0.00
2019,04,05,00,50,0.00
2019,04,05,00,51,0.10
2019,04,05,00,52,0.20
2019,04,05,00,53,0.10
2019,04,05,00,54,0.10
2019,04,05,00,55,0.30
2019,04,05,00,56,0.10
2019,04,05,00,57,0.30
2019,04,05,00,58,0.90
2019,04,05,00,59,1.00
2019,04,05,01,00,0.20
2019,04,05,01,01,0.00
2019,04,05,01,02,0.20
2019,04,05,01,03,0.80
2019,04,05,01,04,0.10
2019,04,05,01,05,0.50
2019,04,05,01,06,0.50
2019,04,05,01,07,0.20
2019,04,05,01,08,0.80
2019,04,05,01,09,0.80
2019,04,05,01,10,2.10
2019,04,05,01,11,1.20
2019,04,05,01,12,0.90
2019,04,05,01,13,0.20
2019,04,05,01,14,0.10
2019,04,05,01,15,0.00
2019,04,05,01,16,0.00
2019,04,05,01,17,0.00
2019,04,05,01,18,0.80
2019,04,05,01,19,0.00
2019,04,05,01,20,1.20
2019,04,05,01,21,2.20
2019,04,05,01,22,1.10
2019,04,05,01,23,0.10
2019,04,05,01,24,2.10
2019,04,05,01,25,2.00
2019,04,05,01,26,3.90
2019,04,05,01,27,4.00
2019,04,05,01,28,1.00
2019,04,05,01,29,0.60
2019,04,05,01,30,0.90
2019,04,05,01,31,1.00
2019,04,05,01,32,0.50
2019,04,05,01,33,0.10
2019,04,05,01,34,0.10
2019,04,05,01,35,1.50
2019,04,05,01,36,0.10
2019,04,05,01,37,0.70
2019,04,05,01,38,3.70
2019,04,05,01,39,0.30
2019,04,05,01,40,4.70
2019,04,05,01,41,4.50
2019,04,05,01,42,1.40
2019,04,05,01,43,0.00
2019,04,05,01,44,0.20
2019,04,05,01,45,1.90
2019,04,05,01,46,2.40
2019,04,05,01,47,3.40
2019,04,05,01,48,6.10
2019,04,05,01,49,4.60
2019,04,05,01,50,2.60
2019,04,05,01,51,2.10
2019,04,05,01,52,3.50
2019,04,05,01,53,1.20
2019,04,05,01,54,1.10
2019,04,05,01,55,4.40
2019,04,05,01,56,2.30
2019,04,05,01,57,1.00
2019,04,05,01,58,0.70
2019,04,05,01,59,1.70
2019,04,05,02,00,3.50
2019,04,05,02,01,1.60
2019,04,05,02,02,1.20
2019,04,05,02,03,0.30
2019,04,05,02,04,0.00
2019,04,05,02,05,0.00
2019,04,05,02,06,0.00
2019,04,05,02,07,0.20
2019,04,05,02,08,0.80
2019,04,05,02,09,0.50
2019,04,05,02,10,1.40
2019,04,05,02,11,4.50
2019,04,05,02,12,5.50
2019,04,05,02,13,4.50
2019,04,05,02,14,5.20
2019,04,05,02,15,6.20
2019,04,05,02,16,7.10
2019,04,05,02,17,6.20
2019,04,05,02,18,5.50
2019,04,05,02,19,4.40
2019,04,05,02,20,3.40
2019,04,05,02,21,4.70
2019,04,05,02,22,2.20
2019,04,05,02,23,1.30
2019,04,05,02,24,2.10
2019,04,05,02,25,1.80
2019,04,05,02,26,2.70
2019,04,05,02,27,3.70
2019,04,05,02,28,5.70
2019,04,05,02,29,3.90
2019,04,05,02,30,1.30
2019,04,05,02,31,1.90
2019,04,05,02,32,0.90
2019,04,05,02,33,0.50
2019,04,05,02,34,1.10
2019,04,05,02,35,0.60
2019,04,05,02,36,3.30
2019,04,05,02,37,5.10
2019,04,05,02,38,4.40
2019,04,05,02,39,3.80
2019,04,05,02,40,2.50
2019,04,05,02,41,5.50
2019,04,05,02,42,4.10
2019,04,05,02,43,7.30
2019,04,05,02,44,7.10
2019,04,05,02,45,8.10
2019,04,05,02,46,8.80
2019,04,05,02,47,7.00
2019,04,05,02,48,3.40
2019,04,05,02,49,7.40
2019,04,05,02,50,5.10
2019,04,05,02,51,6.10
2019,04,05,02,52,4.50
2019,04,05,02,53,4.40
2019,04,05,02,54,4.00
2019,04,05,02,55,7.10
2019,04,05,02,56,7.30
2019,04,05,02,57,8.20
2019,04,05,02,58,9.10
2019,04,05,02,59,5.10
2019,04,05,03,00,6.70
2019,04,05,03,01,8.40
2019,04,05,03,02,10.10
2019,04,05,03,03,7.40
2019,04,05,03,04,4.10
2019,04,05,03,05,9.00
2019,04,05,03,06,5.70
2019,04,05,03,07,1.50
2019,04,05,03,08,2.70
2019,04,05,03,09,3.40
2019,04,05,03,10,6.40
2019,04,05,03,11,6.30
2019,04,05,03,12,8.10
2019,04,05,03,13,4.80
2019,04,05,03,14,8.10
2019,04,05,03,15,8.30
2019,04,05,03,16,7.50
2019,04,05,03,17,5.80
2019,04,05,03,18,8.20
2019,04,05,03,19,6.70
2019,04,05,03,20,3.00
2019,04,05,03,21,6.60
2019,04,05,03,22,6.90
2019,04,05,03,23,5.50
2019,04,05,03,24,7.00
2019,04,05,03,25,6.50
2019,04,05,03,26,6.60
2019,04,05,03,27,5.50
2019,04,05,03,28,5.90
2019,04,05,03,29,5.60
2019,04,05,03,30,5.60
2019,04,05,03,31,4.60
2019,04,05,03,32,2.80
2019,04,05,03,33,3.10
2019,04,05,03,34,3.50
2019,04,05,03,35,4.00
2019,04,05,03,36,3.90
2019,04,05,03,37,4.20
2019,04,05,03,38,3.60
2019,04,05,03,39,3.30
2019,04,05,03,40,2.00
2019,04,05,03,41,4.50
2019,04,05,03,42,4.10
2019,04,05,03,43,1.10
2019,04,05,03,44,0.80
2019,04,05,03,45,3.70
2019,04,05,03,46,4.20
2019,04,05,03,47,0.90
2019,04,05,03,48,2.20
2019,04,05,03,49,1.60
2019,04,05,03,50,1.90
2019,04,05,03,51,1.00
2019,04,05,03,52,1.50
2019,04,05,03,53,2.10
2019,04,05,03,54,0.50
2019,04,05,03,55,0.50
2019,04,05,03,56,0.00
2019,04,05,03,57,0.00
2019,04,05,03,58,0.50
2019,04,05,03,59,0.90
2019,04,05,04,00,0.70
2019,04,05,04,01,0.50
2019,04,05,04,02,1.50
2019,04,05,04,03,4.60
2019,04,05,04,04,4.20
2019,04,05,04,08,4.80
2019,04,05,04,09,3.10
2019,04,05,04,10,3.00
2019,04,05,04,11,2.10
2019,04,05,04,12,2.80
2019,04,05,04,13,1.90
2019,04,05,04,14,5.60
2019,04,05,04,15,4.90
2019,04,05,04,16,0.80
2019,04,05,04,17,1.70
2019,04,05,04,18,4.50
2019,04,05,04,19,3.60
2019,04,05,04,20,4.00
2019,04,05,04,21,2.80
2019,04,05,04,22,10.40
2019,04,05,04,23,5.70
2019,04,05,04,24,5.80
2019,04,05,04,25,8.00
2019,04,05,04,26,11.20
2019,04,05,04,27,5.50
2019,04,05,04,28,1.90
2019,04,05,04,29,5.00
2019,04,05,04,30,5.80
2019,04,05,04,31,7.40
2019,04,05,04,32,12.90
2019,04,05,04,33,11.90
2019,04,05,04,34,9.30
2019,04,05,04,35,5.50
2019,04,05,04,36,8.30
2019,04,05,04,37,8.60
2019,04,05,04,38,9.00
2019,04,05,04,39,7.10
2019,04,05,04,40,6.70
2019,04,05,04,41,5.40
2019,04,05,04,42,5.80
2019,04,05,04,43,7.40
2019,04,05,04,44,10.80
2019,04,05,04,45,9.40
2019,04,05,04,46,8.90
2019,04,05,04,47,8.10
2019,04,05,04,48,7.80
2019,04,05,04,49,4.10
2019,04,05,04,50,4.50
2019,04,05,04,51,7.80
2019,04,05,04,52,7.80
2019,04,05,04,53,10.80
2019,04,05,04,54,7.70
2019,04,05,04,55,5.60
2019,04,05,04,56,4.10
2019,04,05,04,57,3.60
2019,04,05,04,58,2.90
2019,04,05,04,59,3.80
2019,04,05,05,00,5.90
2019,04,05,05,01,4.70
2019,04,05,05,02,7.50
2019,04,05,05,03,5.20
2019,04,05,05,04,5.70
2019,04,05,05,05,3.60
2019,04,05,05,06,4.30
2019,04,05,05,07,2.40
2019,04,05,05,08,1.50
2019,04,05,05,09,3.80
2019,04,05,05,10,3.60
2019,04,05,05,11,3.90
2019,04,05,05,12,5.30
2019,04,05,05,13,3.90
2019,04,05,05,14,8.60
2019,04,05,05,15,9.70
2019,04,05,05,16,8.30
2019,04,05,05,17,7.30
2019,04,05,05,18,11.60
2019,04,05,05,19,8.90
2019,04,05,05,20,7.60
2019,04,05,05,21,4.00
2019,04,05,05,22,7.20
2019,04,05,05,23,9.40
2019,04,05,05,24,8.00
2019,04,05,05,25,5.20
2019,04,05,05,26,5.30
2019,04,05,05,27,3.80
2019,04,05,05,28,4.20
2019,04,05,05,29,4.70
2019,04,05,05,30,3.90
2019,04,05,05,31,6.20
2019,04,05,05,32,3.30
2019,04,05,05,33,3.60
2019,04,05,05,34,4.40
2019,04,05,05,35,0.90
2019,04,05,05,36,4.30
2019,04,05,05,37,7.00
2019,04,05,05,38,5.70
2019,04,05,05,39,6.10
2019,04,05,05,40,4.30
2019,04,05,05,41,4.10
2019,04,05,05,42,3.10
2019,04,05,05,43,2.20
2019,04,05,05,44,3.00
2019,04,05,05,45,1.80
2019,04,05,05,46,4.50
2019,04,05,05,47,6.70
2019,04,05,05,48,2.60
2019,04,05,05,49,0.90
2019,04,05,05,50,2.70
2019,04,05,05,51,4.80
2019,04,05,05,52,5.70
2019,04,05,05,53,7.00
2019,04,05,05,54,9.00
2019,04,05,05,55,9.00
2019,04,05,05,56,8.10
2019,04,05,05,57,6.10
2019,04,05,05,58,6.70
2019,04,05,05,59,8.80
2019,04,05,06,00,4.30
2019,04,05,06,01,0.20
2019,04,05,06,02,2.90
2019,04,05,06,03,3.80
2019,04,05,06,04,1.40
2019,04,05,06,05,3.60
2019,04,05,06,06,4.50
2019,04,05,06,07,5.40
2019,04,05,06,08,1.30
2019,04,05,06,09,0.20
2019,04,05,06,10,0.00
2019,04,05,06,11,0.50
2019,04,05,06,12,1.10
2019,04,05,06,13,1.50
2019,04,05,06,14,6.20
2019,04,05,06,15,3.20
2019,04,05,06,16,3.00
2019,04,05,06,17,1.50
2019,04,05,06,18,0.00
2019,04,05,06,19,0.00
2019,04,05,06,20,0.00
2019,04,05,06,21,0.00
2019,04,05,06,22,0.00
2019,04,05,06,23,0.00
2019,04,05,06,24,0.00
2019,04,05,06,25,0.00
2019,04,05,06,26,0.00
2019,04,05,06,27,0.00
2019,04,05,06,28,0.00
2019,04,05,06,29,0.00
2019,04,05,06,30,0.20
2019,04,05,06,31,0.20
2019,04,05,06,32,0.00
2019,04,05,06,33,0.70
2019,04,05,06,34,4.90
2019,04,05,06,35,4.60
2019,04,05,06,36,3.50
2019,04,05,06,37,1.30
2019,04,05,06,38,1.40
2019,04,05,06,39,3.10
2019,04,05,06,40,4.30
2019,04,05,06,41,5.30
2019,04,05,06,42,4.00
2019,04,05,06,43,5.30
2019,04,05,06,44,5.90
2019,04,05,06,45,5.90
2019,04,05,06,46,6.80
2019,04,05,06,47,1.90
2019,04,05,06,48,2.70
2019,04,05,06,49,5.00
2019,04,05,06,50,3.40
2019,04,05,06,51,2.90
2019,04,05,06,52,2.00
2019,04,05,06,53,4.20
2019,04,05,06,54,3.90
2019,04,05,06,55,4.30
2019,04,05,06,56,3.20
2019,04,05,06,57,3.70
2019,04,05,06,58,2.60
2019,04,05,06,59,3.90
2019,04,05,07,00,4.50
2019,04,05,07,01,5.10
2019,04,05,07,02,6.90
2019,04,05,07,03,6.10
2019,04,05,07,04,4.40
2019,04,05,07,05,3.20
2019,04,05,07,06,6.70
2019,04,05,07,07,9.60
2019,04,05,07,08,6.50
2019,04,05,07,09,6.00
2019,04,05,07,10,6.20
2019,04,05,07,11,3.90
2019,04,05,07,12,4.20
2019,04,05,07,13,4.40
2019,04,05,07,14,5.90
2019,04,05,07,15,4.70
2019,04,05,07,16,2.60
2019,04,05,07,17,1.50
2019,04,05,07,18,2.70
2019,04,05,07,19,0.50
2019,04,05,07,20,2.90
2019,04,05,07,21,5.90
2019,04,05,07,22,5.70
2019,04,05,07,23,4.50
2019,04,05,07,24,5.00
2019,04,05,07,25,7.20
2019,04,05,07,26,5.70
2019,04,05,07,27,5.90
2019,04,05,07,28,3.50
2019,04,05,07,29,6.40
2019,04,05,07,30,6.10
2019,04,05,07,31,5.70
2019,04,05,07,32,6.40
2019,04,05,07,33,5.80
2019,04,05,07,34,11.50
2019,04,05,07,35,8.80
2019,04,05,07,36,8.20
2019,04,05,07,37,6.50
2019,04,05,07,38,5.30
2019,04,05,07,39,10.70
2019,04,05,07,40,6.60
2019,04,05,07,41,4.70
2019,04,05,07,42,6.20
2019,04,05,07,43,4.90
2019,04,05,07,44,3.70
2019,04,05,07,45,3.60
2019,04,05,07,46,6.30
2019,04,05,07,47,4.00
2019,04,05,07,48,5.10
2019,04,05,07,49,6.10
2019,04,05,07,50,4.60
2019,04,05,07,51,8.30
2019,04,05,07,52,6.20
2019,04,05,07,53,3.60
2019,04,05,07,54,3.90
2019,04,05,07,55,4.40
2019,04,05,07,56,4.00
2019,04,05,07,57,8.20
2019,04,05,07,58,4.30
2019,04,05,07,59,4.00
2019,04,05,08,00,5.40
2019,04,05,08,01,5.10
2019,04,05,08,02,5.90
2019,04,05,08,03,6.40
2019,04,05,08,04,10.20
2019,04,05,08,05,4.40
2019,04,05,08,06,4.70
2019,04,05,08,07,7.30
2019,04,05,08,08,5.80
2019,04,05,08,09,6.90
2019,04,05,08,10,8.90
2019,04,05,08,11,11.80
2019,04,05,08,12,12.00
2019,04,05,08,13,6.80
2019,04,05,08,14,6.00
2019,04,05,08,15,4.70
2019,04,05,08,16,6.80
2019,04,05,08,17,3.70
2019,04,05,08,18,4.10
2019,04,05,08,19,4.80
2019,04,05,08,20,6.90
2019,04,05,08,21,4.60
2019,04,05,08,22,3.10
2019,04,05,08,23,2.20
2019,04,05,08,24,6.30
2019,04,05,08,25,7.40
2019,04,05,08,26,7.50
2019,04,05,08,27,6.60
2019,04,05,08,28,8.00
2019,04,05,08,29,7.30
2019,04,05,08,30,8.90
2019,04,05,08,31,7.40
2019,04,05,08,32,3.70
2019,04,05,08,33,7.10
2019,04,05,08,34,4.90
2019,04,05,08,35,3.10
2019,04,05,08,36,3.80
2019,04,05,08,37,5.60
2019,04,05,08,38,3.80
2019,04,05,08,39,5.60
2019,04,05,08,40,7.80
2019,04,05,08,41,4.00
2019,04,05,08,42,6.40
2019,04,05,08,43,3.50
2019,04,05,08,44,2.20
2019,04,05,08,45,3.90
2019,04,05,08,46,4.40
2019,04,05,08,47,2.30
2019,04,05,08,48,5.60
2019,04,05,08,49,4.90
2019,04,05,08,50,6.00
2019,04,05,08,51,6.40
2019,04,05,08,52,8.20
2019,04,05,08,53,4.60
2019,04,05,08,54,8.90
2019,04,05,08,55,3.70
2019,04,05,08,56,4.70
2019,04,05,08,57,4.10
2019,04,05,08,58,3.40
2019,04,05,08,59,5.80
2019,04,05,09,00,3.70
2019,04,05,09,01,2.70
2019,04,05,09,02,5.40
2019,04,05,09,03,3.30
2019,04,05,09,04,3.40
2019,04,05,09,05,2.50
2019,04,05,09,06,2.40
2019,04,05,09,07,2.40
2019,04,05,09,08,1.50
2019,04,05,09,09,2.10
2019,04,05,09,10,2.00
2019,04,05,09,11,3.60
2019,04,05,09,12,2.10
2019,04,05,09,13,3.10
2019,04,05,09,14,3.90
2019,04,05,09,15,2.60
2019,04,05,09,16,2.50
2019,04,05,09,17,3.70
2019,04,05,09,18,1.80
2019,04,05,09,19,3.30
2019,04,05,09,20,0.10
2019,04,05,09,21,0.20
2019,04,05,09,22,0.70
2019,04,05,09,23,0.80
2019,04,05,09,24,3.50
2019,04,05,09,25,2.40
2019,04,05,09,26,1.20
2019,04,05,09,27,3.40
2019,04,05,09,28,0.10
2019,04,05,09,29,3.10
2019,04,05,09,30,3.60
2019,04,05,09,31,2.40
2019,04,05,09,32,3.20
2019,04,05,09,33,0.50
2019,04,05,09,34,1.80
2019,04,05,09,35,0.80
2019,04,05,09,36,2.40
2019,04,05,09,37,1.80
2019,04,05,09,38,4.10
2019,04,05,09,39,3.50
2019,04,05,09,40,3.30
2019,04,05,09,41,2.60
2019,04,05,09,42,3.80
2019,04,05,09,43,4.40
2019,04,05,09,44,2.90
2019,04,05,09,45,3.50
2019,04,05,09,46,0.70
2019,04,05,09,47,1.00
2019,04,05,09,48,2.70
2019,04,05,09,49,4.30
2019,04,05,09,50,2.90
2019,04,05,09,51,2.20
2019,04,05,09,52,2.60
2019,04,05,09,53,2.00
2019,04,05,09,54,0.20
2019,04,05,09,55,0.40
2019,04,05,09,56,2.80
2019,04,05,09,57,0.60
2019,04,05,09,58,2.80
2019,04,05,09,59,3.80
2019,04,05,10,00,2.40
2019,04,05,10,01,4.50
2019,04,05,10,02,4.60
2019,04,05,10,03,2.90
2019,04,05,10,04,3.20
2019,04,05,10,05,2.80
2019,04,05,10,06,4.20
2019,04,05,10,07,8.80
2019,04,05,10,08,5.00
2019,04,05,10,09,4.30
2019,04,05,10,10,6.40
2019,04,05,10,11,6.10
2019,04,05,10,12,4.80
2019,04,05,10,13,3.40
2019,04,05,10,14,6.10
2019,04,05,10,15,4.50
2019,04,05,10,16,3.90
2019,04,05,10,17,6.20
2019,04,05,10,18,4.50
2019,04,05,10,19,5.60
2019,04,05,10,20,9.70
2019,04,05,10,21,8.00
2019,04,05,10,22,9.60
2019,04,05,10,23,9.40
2019,04,05,10,24,7.10
2019,04,05,10,25,3.50
2019,04,05,10,26,8.60
2019,04,05,10,27,1.80
2019,04,05,10,28,3.50
2019,04,05,10,29,7.00
2019,04,05,10,30,3.40
2019,04,05,10,31,5.20
2019,04,05,10,32,4.90
2019,04,05,10,33,3.10
2019,04,05,10,34,3.00
2019,04,05,10,35,4.50
2019,04,05,10,36,5.20
2019,04,05,10,37,6.60
2019,04,05,10,38,2.90
2019,04,05,10,39,2.00
2019,04,05,10,40,3.90
2019,04,05,10,41,6.90
2019,04,05,10,42,7.90
2019,04,05,10,43,6.50
2019,04,05,10,44,3.10
2019,04,05,10,45,1.60
2019,04,05,10,46,0.00
2019,04,05,10,47,0.00
2019,04,05,10,48,0.10
2019,04,05,10,49,0.00
2019,04,05,10,50,0.00
2019,04,05,10,51,0.10
2019,04,05,10,52,0.00
2019,04,05,10,53,0.80
2019,04,05,10,54,2.00
2019,04,05,10,55,2.80
2019,04,05,10,56,0.60
2019,04,05,10,57,0.20
2019,04,05,10,58,0.20
2019,04,05,10,59,1.60
2019,04,05,11,00,1.90
2019,04,05,11,01,4.10
2019,04,05,11,02,1.00
2019,04,05,11,03,2.60
2019,04,05,11,04,2.80
2019,04,05,11,05,4.20
2019,04,05,11,06,1.80
2019,04,05,11,07,2.40
2019,04,05,11,08,3.90
2019,04,05,11,09,1.10
2019,04,05,11,10,5.40
2019,04,05,11,11,7.90
2019,04,05,11,12,4.90
2019,04,05,11,13,0.60
2019,04,05,11,14,2.80
2019,04,05,11,15,5.50
2019,04,05,11,16,9.80
2019,04,05,11,17,9.50
2019,04,05,11,18,9.30
2019,04,05,11,19,3.10
2019,04,05,11,20,10.70
2019,04,05,11,21,7.70
2019,04,05,11,22,3.90
2019,04,05,11,23,5.70
2019,04,05,11,24,5.60
2019,04,05,11,25,11.00
2019,04,05,11,26,7.70
2019,04,05,11,27,4.80
2019,04,05,11,28,8.10
2019,04,05,11,29,9.60
2019,04,05,11,30,4.20
2019,04,05,11,31,3.30
2019,04,05,11,32,5.50
2019,04,05,11,33,2.10
2019,04,05,11,34,5.20
2019,04,05,11,35,4.80
2019,04,05,11,36,5.40
2019,04,05,11,37,6.70
2019,04,05,11,38,3.90
2019,04,05,11,39,5.40
2019,04,05,11,40,4.90
2019,04,05,11,41,9.50
2019,04,05,11,42,4.40
2019,04,05,11,43,5.90
2019,04,05,11,44,5.30
2019,04,05,11,45,4.50
2019,04,05,11,46,3.40
2019,04,05,11,47,6.80
2019,04,05,11,48,4.30
2019,04,05,11,49,6.20
2019,04,05,11,50,2.40
2019,04,05,11,51,0.10
2019,04,05,11,52,0.00
2019,04,05,11,53,2.20
2019,04,05,11,54,5.90
2019,04,05,11,55,10.90
2019,04,05,11,56,4.00
2019,04,05,11,57,2.50
2019,04,05,11,58,3.60
2019,04,05,11,59,6.50
2019,04,05,12,00,1.90
2019,04,05,12,01,1.70
2019,04,05,12,02,1.50
2019,04,05,12,03,0.90
2019,04,05,12,04,1.40
2019,04,05,12,05,3.10
2019,04,05,12,06,4.70
2019,04,05,12,07,8.90
2019,04,05,12,08,6.70
2019,04,05,12,09,3.40
2019,04,05,12,10,7.00
2019,04,05,12,11,9.20
2019,04,05,12,12,8.00
2019,04,05,12,13,7.70
2019,04,05,12,14,9.70
2019,04,05,12,15,9.70
2019,04,05,12,16,8.20
2019,04,05,12,17,9.00
2019,04,05,12,18,5.40
2019,04,05,12,19,11.50
2019,04,05,12,20,13.00
2019,04,05,12,21,9.90
2019,04,05,12,22,10.50
2019,04,05,12,23,10.70
2019,04,05,12,24,8.90
2019,04,05,12,25,6.90
2019,04,05,12,26,9.40
2019,04,05,12,27,6.40
2019,04,05,12,28,6.80
2019,04,05,12,29,3.40
2019,04,05,12,30,1.60
2019,04,05,12,31,11.60
2019,04,05,12,32,13.20
2019,04,05,12,33,7.50
2019,04,05,12,34,9.00
2019,04,05,12,35,8.60
2019,04,05,12,36,5.30
2019,04,05,12,37,8.30
2019,04,05,12,38,4.40
2019,04,05,12,39,10.00
2019,04,05,12,40,16.90
2019,04,05,12,41,23.70
2019,04,05,12,42,12.00
2019,04,05,12,43,9.40
2019,04,05,12,44,17.00
2019,04,05,12,45,13.80
2019,04,05,12,46,13.40
2019,04,05,12,47,13.80
2019,04,05,12,48,6.90
2019,04,05,12,49,12.70
2019,04,05,12,50,11.00
2019,04,05,12,51,11.70
2019,04,05,12,52,13.40
2019,04,05,12,53,16.70
2019,04,05,12,54,12.50
2019,04,05,12,55,17.90
2019,04,05,12,56,14.40
2019,04,05,12,57,11.40
2019,04,05,12,58,20.20
2019,04,05,12,59,18.00
2019,04,05,13,00,12.50
2019,04,05,13,01,10.20
2019,04,05,13,02,17.80
2019,04,05,13,03,10.80
2019,04,05,13,04,10.80
2019,04,05,13,05,10.50
2019,04,05,13,06,13.50
2019,04,05,13,07,10.80
2019,04,05,13,08,5.70
2019,04,05,13,09,6.40
2019,04,05,13,10,9.30
2019,04,05,13,11,13.20
2019,04,05,13,12,19.20
2019,04,05,13,13,17.80
2019,04,05,13,14,24.00
2019,04,05,13,15,12.90
2019,04,05,13,16,14.80
2019,04,05,13,17,15.80
2019,04,05,13,18,22.30
2019,04,05,13,19,25.30
2019,04,05,13,20,24.70
2019,04,05,13,21,21.50
2019,04,05,13,22,15.40
2019,04,05,13,23,16.10
2019,04,05,13,24,20.30
2019,04,05,13,25,21.20
2019,04,05,13,26,17.40
2019,04,05,13,27,24.20
2019,04,05,13,28,25.00
2019,04,05,13,29,19.50
2019,04,05,13,30,23.00
2019,04,05,13,31,16.90
2019,04,05,13,32,21.60
2019,04,05,13,33,23.40
2019,04,05,13,34,18.40
2019,04,05,13,35,20.60
2019,04,05,13,36,19.30
2019,04,05,13,37,23.80
2019,04,05,13,38,26.80
2019,04,05,13,39,22.50
2019,04,05,13,40,19.40
2019,04,05,13,41,18.10
2019,04,05,13,42,17.80
2019,04,05,13,43,20.20
2019,04,05,13,44,20.50
2019,04,05,13,45,17.90
2019,04,05,13,46,13.80
2019,04,05,13,47,20.40
2019,04,05,13,48,19.10
2019,04,05,13,49,14.50
2019,04,05,13,50,16.90
2019,04,05,13,51,17.80
2019,04,05,13,52,17.00
2019,04,05,13,53,22.50
2019,04,05,13,54,18.60
2019,04,05,13,55,19.60
2019,04,05,13,56,15.20
2019,04,05,13,57,14.40
2019,04,05,13,58,17.00
2019,04,05,13,59,21.20
2019,04,05,14,00,22.70
2019,04,05,14,01,17.50
2019,04,05,14,02,14.80
2019,04,05,14,03,15.80
2019,04,05,14,04,16.80
2019,04,05,14,05,17.20
2019,04,05,14,06,16.70
2019,04,05,14,07,12.10
2019,04,05,14,08,19.80
2019,04,05,14,09,23.60
2019,04,05,14,10,20.60
2019,04,05,14,11,19.00
2019,04,05,14,12,15.20
2019,04,05,14,13,23.70
2019,04,05,14,14,18.80
2019,04,05,14,15,16.50
2019,04,05,14,16,13.90
2019,04,05,14,17,13.40
2019,04,05,14,18,14.60
2019,04,05,14,19,16.70
2019,04,05,14,20,15.90
2019,04,05,14,21,15.60
2019,04,05,14,22,14.60
2019,04,05,14,23,13.80
2019,04,05,14,24,11.80
2019,04,05,14,25,9.10
2019,04,05,14,26,9.00
2019,04,05,14,27,12.60
2019,04,05,14,28,10.30
2019,04,05,14,29,11.40
2019,04,05,14,30,9.20
2019,04,05,14,31,10.20
2019,04,05,14,32,6.00
2019,04,05,14,33,1.70
2019,04,05,14,34,0.00
2019,04,05,14,35,2.60
2019,04,05,14,36,4.70
2019,04,05,14,37,4.80
2019,04,05,14,38,1.50
2019,04,05,14,39,3.50
2019,04,05,14,40,3.60
2019,04,05,14,41,0.40
2019,04,05,14,42,1.20
2019,04,05,14,43,1.20
2019,04,05,14,44,6.00
2019,04,05,14,45,6.80
2019,04,05,14,46,4.30
2019,04,05,14,47,4.40
2019,04,05,14,48,0.90
2019,04,05,14,49,0.90
2019,04,05,14,50,5.60
2019,04,05,14,51,2.90
2019,04,05,14,52,3.30
2019,04,05,14,53,7.70
2019,04,05,14,54,6.30
2019,04,05,14,55,10.20
2019,04,05,14,56,5.60
2019,04,05,14,57,4.40
2019,04,05,14,58,10.90
2019,04,05,14,59,7.00
2019,04,05,15,00,7.00
2019,04,05,15,01,7.80
2019,04,05,15,02,6.20
2019,04,05,15,03,7.40
2019,04,05,15,04,8.10
2019,04,05,15,05,4.50
2019,04,05,15,06,6.50
2019,04,05,15,07,5.10
2019,04,05,15,08,4.20
2019,04,05,15,09,4.30
2019,04,05,15,10,1.60
2019,04,05,15,11,1.90
2019,04,05,15,12,6.70
2019,04,05,15,13,9.30
2019,04,05,15,14,2.00
2019,04,05,15,15,12.60
2019,04,05,15,16,3.30
2019,04,05,15,17,6.50
2019,04,05,15,18,4.30
2019,04,05,15,19,2.10
2019,04,05,15,20,0.70
2019,04,05,15,21,4.10
2019,04,05,15,22,6.00
2019,04,05,15,23,6.70
2019,04,05,15,24,2.80
2019,04,05,15,25,1.40
2019,04,05,15,26,0.80
2019,04,05,15,27,3.60
2019,04,05,15,28,3.80
2019,04,05,15,29,3.30
2019,04,05,15,30,4.80
2019,04,05,15,31,3.10
2019,04,05,15,32,4.40
2019,04,05,15,33,2.90
2019,04,05,15,34,1.80
2019,04,05,15,35,4.40
2019,04,05,15,36,2.30
2019,04,05,15,37,4.40
2019,04,05,15,38,4.00
2019,04,05,15,39,2.60
2019,04,05,15,40,6.10
2019,04,05,15,41,5.10
2019,04,05,15,42,8.00
2019,04,05,15,43,12.00
2019,04,05,15,44,8.90
2019,04,05,15,45,5.90
2019,04,05,15,46,3.10
2019,04,05,15,47,4.50
2019,04,05,15,48,6.80
2019,04,05,15,49,9.70
2019,04,05,15,50,7.80
2019,04,05,15,51,9.10
2019,04,05,15,52,7.70
2019,04,05,15,53,8.90
2019,04,05,15,54,2.50
2019,04,05,15,55,10.30
2019,04,05,15,56,9.30
2019,04,05,15,57,10.00
2019,04,05,15,58,4.70
2019,04,05,15,59,1.80
2019,04,05,16,00,6.00
2019,04,05,16,01,9.70
2019,04,05,16,02,11.60
2019,04,05,16,03,8.40
2019,04,05,16,04,3.90
2019,04,05,16,05,1.20
2019,04,05,16,06,6.60
2019,04,05,16,07,11.30
2019,04,05,16,08,12.40
2019,04,05,16,09,9.00
2019,04,05,16,10,8.40
2019,04,05,16,11,12.00
2019,04,05,16,12,12.30
2019,04,05,16,13,12.20
2019,04,05,16,14,5.90
2019,04,05,16,15,9.40
2019,04,05,16,16,7.20
2019,04,05,16,17,7.00
2019,04,05,16,18,10.50
2019,04,05,16,19,6.00
2019,04,05,16,20,8.20
2019,04,05,16,21,9.90
2019,04,05,16,22,6.70
2019,04,05,16,23,8.40
2019,04,05,16,24,5.40
2019,04,05,16,25,5.90
2019,04,05,16,26,9.10
2019,04,05,16,27,4.10
2019,04,05,16,28,11.30
2019,04,05,16,29,7.00
2019,04,05,16,30,5.50
2019,04,05,16,31,12.90
2019,04,05,16,32,9.30
2019,04,05,16,33,2.30
2019,04,05,16,34,11.00
2019,04,05,16,35,9.40
2019,04,05,16,36,8.80
2019,04,05,16,37,1.90
2019,04,05,16,38,2.20
2019,04,05,16,39,4.90
2019,04,05,16,40,4.30
2019,04,05,16,41,8.40
2019,04,05,16,42,4.90
2019,04,05,16,43,5.50
2019,04,05,16,44,3.30
2019,04,05,16,45,5.70
2019,04,05,16,46,7.80
2019,04,05,16,47,4.70
2019,04,05,16,48,6.00
2019,04,05,16,49,6.10
2019,04,05,16,50,4.60
2019,04,05,16,51,5.20
2019,04,05,16,52,4.80
2019,04,05,16,53,4.90
2019,04,05,16,54,7.50
2019,04,05,16,55,8.30
2019,04,05,16,56,5.10
2019,04,05,16,57,2.50
2019,04,05,16,58,6.00
2019,04,05,16,59,5.40
2019,04,05,17,00,1.80
2019,04,05,17,01,11.40
2019,04,05,17,02,8.80
2019,04,05,17,03,3.80
2019,04,05,17,04,5.60
2019,04,05,17,05,1.40
2019,04,05,17,06,10.00
2019,04,05,17,07,6.90
2019,04,05,17,08,3.30
2019,04,05,17,09,7.40
2019,04,05,17,10,7.00
2019,04,05,17,11,9.50
2019,04,05,17,12,7.20
2019,04,05,17,13,3.40
2019,04,05,17,14,4.10
2019,04,05,17,15,4.20
2019,04,05,17,16,5.20
2019,04,05,17,17,5.50
2019,04,05,17,18,5.20
2019,04,05,17,19,6.40
2019,04,05,17,20,5.10
2019,04,05,17,21,4.30
2019,04,05,17,22,6.30
2019,04,05,17,23,3.40
2019,04,05,17,24,6.50
2019,04,05,17,25,7.10
2019,04,05,17,26,3.20
2019,04,05,17,27,11.00
2019,04,05,17,28,11.70
2019,04,05,17,29,6.30
2019,04,05,17,30,5.00
2019,04,05,17,31,2.60
2019,04,05,17,32,6.20
2019,04,05,17,33,7.90
2019,04,05,17,34,5.40
2019,04,05,17,35,8.40
2019,04,05,17,36,4.60
2019,04,05,17,37,4.10
2019,04,05,17,38,5.50
2019,04,05,17,39,14.10
2019,04,05,17,40,6.90
2019,04,05,17,41,7.50
2019,04,05,17,42,8.60
2019,04,05,17,43,9.60
2019,04,05,17,44,8.40
2019,04,05,17,45,4.10
2019,04,05,17,46,4.70
2019,04,05,17,47,5.80
2019,04,05,17,48,4.20
2019,04,05,17,49,3.40
2019,04,05,17,50,3.00
2019,04,05,17,51,6.70
2019,04,05,17,52,4.50
2019,04,05,17,53,8.70
2019,04,05,17,54,12.60
2019,04,05,17,55,8.40
2019,04,05,17,56,6.90
2019,04,05,17,57,6.40
2019,04,05,17,58,5.40
2019,04,05,17,59,4.00
2019,04,05,18,00,3.40
2019,04,05,18,01,4.80
2019,04,05,18,02,7.20